Location: ????
(33.1659°N, 35.6604°E)
Time: 15:22:01
(UTC+00:00)

BREEZE-M DEB (TANK) - Pass Details

Date: 20 September 2019
Orbit: 307 x 15401 km, 49.3° (Epoch: 17 October)

Event Time Altitude Azimuth Distance (km) Brightness Sun altitude
Rises 16:11:35 0° 317° (NW) 2,199 6.8 -7.9°
Reaches altitude 10° 16:13:34 10° 329° (NNW) 1,197 5.1 -8.4°
Maximum altitude 16:15:35 33° 39° (NE) 567 2.6 -8.8°
Enters shadow 16:17:39 13° 104° (ESE) 1,293 4.1 -9.2°
